Location: Newark
(50.0306°N, 2.3272°E)
Time: 16:44:49
(UTC+00:00)

A-11 Canister half - Pass Details

Date: 11 December 2019
Orbit: 1525 x 1684 km, 47.3° (Epoch: 19 January)

Event Time Altitude Azimuth Distance (km) Brightness Sun altitude
Rises 04:38:45 0° 205° (SSW) 4,893 11.4 -27.7°
Reaches altitude 10° 04:42:18 10° 196° (SSW) 3,922 11.0 -27.1°
Maximum altitude 04:50:50 33° 137° (SE) 2,569 10.5 -25.7°
Drops below altitude 10° 04:59:24 10° 79° (E) 3,943 12.1 -24.4°
Sets 05:02:58 0° 71° (ENE) 4,924 12.7 -23.8°
